TimePDT,TemperatureF,Dew PointF,Humidity,Sea Level PressureIn,VisibilityMPH,Wind Direction,Wind SpeedMPH,Gust SpeedMPH,PrecipitationIn,Events,Conditions,WindDirDegrees,DateUTC
12:54 AM,57.9,54.0,87,29.98,10.0,West,11.5,-,N/A,,Clear,270,2012-10-04 07:54:00
1:39 AM,57.2,53.6,88,30.01,10.0,West,9.2,-,N/A,,Mostly Cloudy,270,2012-10-04 08:39:00
1:49 AM,57.2,53.6,88,30.01,10.0,West,10.4,-,N/A,,Scattered Clouds,260,2012-10-04 08:49:00
1:54 AM,57.9,54.0,87,29.99,10.0,West,9.2,-,N/A,,Scattered Clouds,270,2012-10-04 08:54:00
2:54 AM,59.0,54.0,83,29.99,10.0,West,9.2,-,N/A,,Mostly Cloudy,270,2012-10-04 09:54:00
3:54 AM,60.1,54.0,80,29.99,10.0,West,10.4,-,N/A,,Overcast,270,2012-10-04 10:54:00
4:54 AM,60.1,54.0,80,30.00,10.0,West,11.5,-,N/A,,Overcast,280,2012-10-04 11:54:00
5:54 AM,60.1,53.1,78,30.01,10.0,West,13.8,-,N/A,,Overcast,280,2012-10-04 12:54:00
6:54 AM,60.1,53.1,78,30.03,10.0,West,11.5,-,N/A,,Overcast,270,2012-10-04 13:54:00
7:54 AM,60.1,53.1,78,30.04,10.0,West,10.4,-,N/A,,Overcast,270,2012-10-04 14:54:00
8:54 AM,61.0,53.1,75,30.06,10.0,West,11.5,-,N/A,,Overcast,280,2012-10-04 15:54:00
9:54 AM,62.1,53.1,72,30.08,10.0,West,9.2,-,N/A,,Overcast,280,2012-10-04 16:54:00
10:54 AM,64.0,53.1,67,30.09,10.0,West,9.2,-,N/A,,Overcast,270,2012-10-04 17:54:00
11:54 AM,66.0,53.1,63,30.09,10.0,WSW,10.4,-,N/A,,Overcast,250,2012-10-04 18:54:00
12:38 PM,69.8,55.4,60,30.11,10.0,SW,12.7,-,N/A,,Scattered Clouds,220,2012-10-04 19:38:00
12:54 PM,69.1,55.0,61,30.08,10.0,SSW,13.8,18.4,N/A,,Partly Cloudy,210,2012-10-04 19:54:00
1:54 PM,69.1,55.9,63,30.06,10.0,SSW,16.1,-,N/A,,Clear,210,2012-10-04 20:54:00
2:54 PM,69.1,55.0,61,30.05,10.0,SSW,19.6,-,N/A,,Clear,210,2012-10-04 21:54:00
3:54 PM,68.0,55.0,63,30.04,10.0,SSW,18.4,24.2,N/A,,Clear,200,2012-10-04 22:54:00
4:54 PM,71.1,52.0,51,30.04,10.0,West,17.3,-,N/A,,Clear,260,2012-10-04 23:54:00
5:01 PM,69.8,51.8,53,30.06,10.0,WSW,15.0,-,N/A,,Clear,250,2012-10-05 00:01:00
5:54 PM,66.9,52.0,59,30.04,10.0,West,16.1,-,N/A,,Clear,260,2012-10-05 00:54:00
6:54 PM,61.0,52.0,72,30.05,10.0,West,16.1,24.2,N/A,,Clear,270,2012-10-05 01:54:00
7:54 PM,59.0,52.0,78,30.06,10.0,West,15.0,-,N/A,,Clear,260,2012-10-05 02:54:00
8:54 PM,57.9,52.0,81,30.07,10.0,West,16.1,-,N/A,,Clear,270,2012-10-05 03:54:00
9:54 PM,57.9,52.0,81,30.09,10.0,West,15.0,-,N/A,,Clear,260,2012-10-05 04:54:00
10:54 PM,57.0,52.0,83,30.10,10.0,West,12.7,-,N/A,,Clear,260,2012-10-05 05:54:00
11:54 PM,57.0,52.0,83,30.10,10.0,West,12.7,-,N/A,,Clear,260,2012-10-05 06:54:00